Location: Sungai Bunut
(2.6333°N, 113.7333°E)
Time: 14:53:16
(UTC+00:00)

Altair - Pass Details

Date: 05 December 2023
Orbit: 1501 x 1682 km, 47.2° (Epoch: 24 February)

Event Time Altitude Azimuth Distance (km) Brightness Sun altitude
Rises 07:38:01 0° 342° (NNW) 4,623 9.9 34.7°
Reaches altitude 10° 07:41:50 10° 356° (N) 3,640 9.3 33.8°
Maximum altitude 07:48:53 25° 47° (NE) 2,684 8.5 32.3°
Drops below altitude 10° 07:55:59 10° 98° (E) 3,686 9.2 30.7°
Sets 07:59:48 0° 111° (ESE) 4,693 9.7 29.9°
